Location: Baggettsville
(36.4767°N, 86.7303°W)
Time: 20:35:58
(UTC+00:00)

Envisat - Pass Details

Date: 20 September 2021
Orbit: 764 x 766 km, 98.2° (Epoch: 21 October)

Event Time Altitude Azimuth Distance (km) Brightness Sun altitude
Rises 10:26:01 0° 20° (NNE) 3,236 6.7 -14.3°
Reaches altitude 10° 10:28:26 10° 27° (NNE) 2,306 6.0 -13.8°
Maximum altitude 10:33:17 44° 99° (E) 1,050 4.3 -12.8°
Drops below altitude 10° 10:38:05 10° 171° (S) 2,291 5.5 -11.9°
Sets 10:40:29 0° 178° (S) 3,212 6.2 -11.4°
